Vernal, UT

11:20 AM MDT on June 28, 2017 (GMT -0600)
Vernal

Weather History for KVEL - November, 2011

Change the Weather History Date:

Monday, November 21, 2011

  Actual Average Record
Temperature  
Mean Temperature 34 °F 31 °F  
Max Temperature 39 °F 41 °F 57 °F (1932)
Min Temperature 30 °F 21 °F -16 °F (1953)
Degree Days  
Heating Degree Days 30 34  
Month to date heating degree days 598  
Since 1 July heating degree days 1302  
Cooling Degree Days 0 0  
Month to date cooling degree days 0  
Year to date cooling degree days 511  
Moisture  
Dew Point 31 °F    
Average Humidity 92    
Maximum Humidity 100    
Minimum Humidity 82    
Precipitation  
Precipitation 0.03 in 0.02 in 0.48 in (1983)
Month to date precipitation 0.46  
Year to date precipitation 8.54  
Sea Level Pressure  
Sea Level Pressure 30.11 in    
Wind  
Wind Speed 1 mph (SE)    
Max Wind Speed 6 mph    
Max Gust Speed -    
Visibility 7 miles    
Events Fog , Snow    
T = Trace of Precipitation, MM = Missing Value Source: NWS Daily Summary

Daily Weather History Graph

Daily Weather History Graph

Search for Another Location

Airport or City:

Trip Planner

Search our weather history database for the weather conditions in past years. The results will help you decide how hot, cold, wet, or windy it might be!

Date:

Astronomy

Nov. 21, 2011 Rise Set
Actual Time 7:10 AM MST 4:56 PM MST
Civil Twilight 6:41 AM MST 5:26 PM MST
Nautical Twilight 6:07 AM MST 5:59 PM MST
Astronomical Twilight 5:35 AM MST 6:31 PM MST
Moon 2:52 AM MST (11/21) 2:21 PM MST (11/21)
Length of Visible Light 10h 44m
Length of Day
9h 45m
Waning Crescent, 17% of the Moon is Illuminated
Nov 21
Waning Crescent
Nov 24
New
Dec 2
First Quarter
Dec 10
Full
Dec 17
Last Quarter

Hourly Weather History & Observations

Time (MST) Temp. Windchill Dew Point Humidity Pressure Visibility Wind Dir Wind Speed Gust Speed Precip Events Conditions
12:53 AM 30.9 °F - 28.9 °F 92% 30.10 in 10.0 mi Calm Calm - N/A   Mostly Cloudy
1:53 AM 30.9 °F 27.5 °F 28.9 °F 92% 30.09 in 10.0 mi West 3.5 mph - N/A   Overcast
2:53 AM 30.9 °F - 28.9 °F 92% 30.10 in 10.0 mi Calm Calm - N/A   Overcast
3:53 AM 30.9 °F 27.5 °F 28.9 °F 92% 30.09 in 10.0 mi SSE 3.5 mph - N/A   Overcast
4:53 AM 30.0 °F - 28.0 °F 92% 30.10 in 10.0 mi Calm Calm - N/A   Mostly Cloudy
5:53 AM 30.0 °F - 28.9 °F 96% 30.11 in 10.0 mi Calm Calm - 0.00 in   Overcast
6:17 AM 30.2 °F - 28.4 °F 93% 30.06 in 7.0 mi Calm Calm - 0.00 in Snow Light Snow
6:34 AM 30.2 °F - 28.4 °F 93% 30.06 in 1.8 mi Calm Calm - 0.00 in Snow Light Snow
6:41 AM 30.2 °F - 30.2 °F 100% 30.06 in 1.0 mi Calm Calm - 0.01 in Snow Light Snow
6:53 AM 30.9 °F - 28.9 °F 92% 30.11 in 1.8 mi Calm Calm - 0.01 in Snow Light Snow
7:03 AM 30.2 °F - 30.2 °F 100% 30.06 in 3.0 mi Calm Calm - 0.00 in Snow Light Snow
7:53 AM 32.0 °F - 30.0 °F 92% 30.12 in 7.0 mi Calm Calm - 0.00 in   Overcast
8:07 AM 32.0 °F - 30.2 °F 93% 30.07 in 6.0 mi Calm Calm - N/A   Overcast
8:42 AM 32.0 °F - 30.2 °F 93% 30.08 in 2.0 mi Calm Calm - 0.00 in Snow Light Snow
8:53 AM 32.0 °F - 30.9 °F 96% 30.14 in 2.5 mi Calm Calm - 0.00 in Snow Light Snow
9:05 AM 32.0 °F - 30.2 °F 93% 30.08 in 3.0 mi Calm Calm - 0.00 in Snow Light Snow
9:13 AM 32.0 °F 28.7 °F 30.2 °F 93% 30.09 in 2.0 mi SSE 3.5 mph - 0.01 in Snow Light Snow
9:22 AM 32.0 °F - 30.2 °F 93% 30.09 in 1.5 mi Calm Calm - 0.01 in Snow Light Snow
9:33 AM 32.0 °F - 30.2 °F 93% 30.08 in 0.5 mi Calm Calm - 0.02 in Fog , Snow Snow
9:53 AM 32.0 °F 28.7 °F 30.9 °F 96% 30.14 in 1.2 mi East 3.5 mph - 0.02 in Snow Light Snow
9:57 AM 32.0 °F - 30.2 °F 93% 30.09 in 1.8 mi Calm Calm - 0.00 in Snow Light Snow
10:05 AM 32.0 °F - 30.2 °F 93% 30.09 in 2.5 mi Calm Calm - 0.00 in   Overcast
10:19 AM 33.8 °F - 30.2 °F 87% 30.09 in 3.0 mi Calm Calm - 0.00 in   Overcast
10:53 AM 33.1 °F - 32.0 °F 96% 30.14 in 4.0 mi Calm Calm - 0.00 in   Overcast
11:53 AM 34.0 °F - 32.0 °F 92% 30.13 in 5.0 mi Calm Calm - N/A   Overcast
12:07 PM 35.6 °F - 33.8 °F 93% 30.07 in 7.0 mi Calm Calm - N/A   Overcast
12:19 PM 35.6 °F - 33.8 °F 93% 30.07 in 8.0 mi Calm Calm - N/A   Overcast
12:29 PM 35.6 °F - 33.8 °F 93% 30.07 in 9.0 mi Calm Calm - N/A   Overcast
12:42 PM 35.6 °F - 33.8 °F 93% 30.06 in 10.0 mi Calm Calm - N/A   Overcast
12:53 PM 36.0 °F 33.3 °F 33.1 °F 89% 30.10 in 10.0 mi ESE 3.5 mph - N/A   Overcast
1:02 PM 35.6 °F 30.7 °F 33.8 °F 93% 30.06 in 10.0 mi ESE 5.8 mph - N/A   Overcast
1:53 PM 37.9 °F 33.5 °F 35.1 °F 89% 30.08 in 10.0 mi East 5.8 mph - N/A   Overcast
2:05 PM 37.4 °F 32.8 °F 33.8 °F 87% 30.05 in 10.0 mi ENE 5.8 mph - N/A   Overcast
2:38 PM 37.4 °F 34.9 °F 33.8 °F 87% 30.05 in 10.0 mi East 3.5 mph - N/A   Overcast
2:53 PM 39.0 °F - 34.0 °F 82% 30.08 in 10.0 mi Calm Calm - N/A   Overcast
4:53 PM 37.0 °F - 33.1 °F 86% 30.13 in 10.0 mi Calm Calm - N/A   Mostly Cloudy
5:08 PM 35.6 °F 32.8 °F 33.8 °F 93% 30.09 in 10.0 mi SSE 3.5 mph - N/A   Partly Cloudy
5:43 PM 35.6 °F 32.8 °F 33.8 °F 93% 30.10 in 10.0 mi North 3.5 mph - N/A   Mostly Cloudy
5:53 PM 36.0 °F - 33.1 °F 89% 30.15 in 10.0 mi Calm Calm - N/A   Overcast
6:17 PM 35.6 °F - 32.0 °F 87% 30.11 in 10.0 mi Calm Calm - N/A   Mostly Cloudy
6:53 PM 33.1 °F 30.0 °F 30.9 °F 92% 30.18 in 9.0 mi SSW 3.5 mph - N/A   Scattered Clouds
7:10 PM 32.0 °F 28.7 °F 30.2 °F 93% 30.13 in 8.0 mi WSW 3.5 mph - N/A   Mostly Cloudy
7:19 PM 32.0 °F 27.5 °F 30.2 °F 93% 30.13 in 7.0 mi SW 4.6 mph - N/A   Mostly Cloudy
7:53 PM 33.1 °F - 30.9 °F 92% 30.19 in 7.0 mi North - - N/A   Overcast
8:07 PM 33.8 °F - 33.8 °F 100% 30.15 in 7.0 mi Calm Calm - N/A   Overcast
8:41 PM 35.6 °F - 33.8 °F 93% 30.16 in 8.0 mi Calm Calm - N/A   Overcast
8:53 PM 34.0 °F - 32.0 °F 92% 30.22 in 8.0 mi Calm Calm - N/A   Mostly Cloudy
9:53 PM 34.0 °F - 32.0 °F 92% 30.24 in 6.0 mi Calm Calm - N/A   Mostly Cloudy
10:53 PM 30.0 °F - 28.0 °F 92% 30.27 in 4.0 mi Calm Calm - N/A   Scattered Clouds
11:53 PM 30.0 °F 25.2 °F 28.9 °F 96% 30.28 in 5.0 mi WNW 4.6 mph - N/A   Partly Cloudy